Overview Statistics Trail Chart Weather Telemetry Raw packets
 

This is the latest recevied weather packets stored in our database for station/object WD7OO. If no packets are shown the sender has not sent any weather packets the latest 10 day(s).

<< 35 36 37 38 39 40 41 >>
Time Temp. Humidity Pressure Rain* Wind** Luminosity Snow
1788387598 33.89° C 65% 1014.1 hPa 0 mm - 168 W/m² -
1788387297 33.89° C 64% 1014.3 hPa 0 mm - 77 W/m² -
1788386988 33.89° C 63% 1014.2 hPa 0 mm - 191 W/m² -
1788386687 33.89° C 64% 1014.2 hPa 0 mm - 206 W/m² -
1788386382 33.89° C 62% 1014.2 hPa 0 mm - 221 W/m² -
1788386078 33.89° C 64% 1014.2 hPa 0 mm - 234 W/m² -
1788385774 33.89° C 63% 1014 hPa 0 mm - 240 W/m² -
1788385472 33.89° C 64% 1014.2 hPa 0 mm - 258 W/m² -
1788385167 33.89° C 64% 1014.3 hPa 0 mm - 264 W/m² -
1788384863 35° C 63% 1014.2 hPa 0 mm - 299 W/m² -
1788384562 34.44° C 62% 1014.2 hPa 0 mm - 317 W/m² -
1788384258 35° C 60% 1014.4 hPa 0 mm - 331 W/m² -
1788383954 34.44° C 59% 1014.5 hPa 0 mm - 361 W/m² -
1788383650 35° C 60% 1014.3 hPa 0 mm - 349 W/m² -
1788383345 34.44° C 63% 1014.5 hPa 0 mm - 368 W/m² -
1788383045 34.44° C 61% 1014.5 hPa 0 mm - 373 W/m² -
1788382743 35° C 63% 1014.5 hPa 0 mm - 380 W/m² -
1788382437 35° C 59% 1014.9 hPa 0 mm - 334 W/m² -
1788382134 35° C 60% 1014.7 hPa 0 mm - 405 W/m² -
1788381833 34.44° C 62% 1014.7 hPa 0 mm - 432 W/m² -
1788381529 35° C 62% 1014.9 hPa 0 mm - 467 W/m² -
1788381224 34.44° C 60% 1014.9 hPa 0 mm - 461 W/m² -
1788380918 33.89° C 62% 1014.7 hPa 0 mm - 439 W/m² -
1788380614 34.44° C 61% 1015.1 hPa 0 mm - 410 W/m² -
1788380311 34.44° C 63% 1014.9 hPa 0 mm - 533 W/m² -

* Rain latest hour (hover to see other rain measurements)
** Current wind speed in m/s (hover to see current wind gust speed)